Location: Karlsruhe
(49.0131°N, 8.3874°E)
Time: 22:31:34
(UTC+02:00)

ISS - Visible Passes

Search period start: 26 July 2017 00:00
Search period end: 05 August 2017 00:00
Orbit: 400 x 408 km, 51.6° (Epoch: 27 July)

Date Brightness Start Highest point End Pass type
(mag) Time Alt. Az. Time Alt. Az. Time Alt. Az.
26 Jul -3.0 00:51:33 10° WNW 00:54:45 51° N 00:56:42 20° ENE visible
26 Jul -1.8 02:28:08 10° WNW 02:29:15 20° WNW 02:29:15 20° WNW visible
26 Jul -3.9 22:22:33 10° WSW 22:25:46 67° SSE 22:29:01 10° ENE visible
26 Jul -3.1 23:59:09 10° W 00:02:21 53° N 00:05:19 12° ENE visible
27 Jul -2.6 01:35:48 10° WNW 01:37:55 36° WNW 01:37:55 36° WNW visible
27 Jul -3.3 23:06:44 10° W 23:09:58 61° NNW 23:13:12 10° ENE visible
28 Jul -3.2 00:43:28 10° WNW 00:46:41 56° N 00:46:58 54° NNE visible
28 Jul -3.7 22:14:20 10° WSW 22:17:35 77° NNW 22:20:52 10° ENE visible
28 Jul -3.0 23:51:05 10° WNW 23:54:17 51° N 23:56:08 22° ENE visible
29 Jul -1.7 01:27:38 10° WNW 01:28:45 20° WNW 01:28:45 20° WNW visible
29 Jul -3.0 22:58:40 10° W 23:01:52 51° N 23:05:03 10° ENE visible
30 Jul -3.3 00:35:17 10° WNW 00:37:58 55° NW 00:37:58 55° NW visible
30 Jul -3.2 22:06:12 10° W 22:09:26 57° N 22:12:39 10° ENE visible
30 Jul -3.4 23:42:56 10° WNW 23:46:09 60° N 23:47:12 37° ENE visible
31 Jul -1.1 01:19:28 10° WNW 01:19:49 12° WNW 01:19:49 12° WNW visible
31 Jul -3.1 22:50:31 10° WNW 22:53:43 52° N 22:56:29 13° E visible
01 Aug -2.6 00:27:03 10° WNW 00:29:06 35° W 00:29:06 35° W visible
01 Aug -3.0 21:58:03 10° W 22:01:15 51° N 22:04:27 10° ENE visible
01 Aug -3.9 23:34:39 10° WNW 23:37:56 83° NNE 23:38:22 63° E visible
02 Aug -3.5 22:42:15 10° WNW 22:45:30 64° NNE 22:47:40 19° E visible
03 Aug -1.9 00:18:50 10° WNW 00:20:17 22° W 00:20:17 22° W visible
03 Aug -3.2 21:49:49 10° WNW 21:53:02 54° N 21:56:15 10° E visible
03 Aug -3.8 23:26:21 10° WNW 23:29:34 60° SSW 23:29:36 60° SSW visible
04 Aug -3.9 22:33:54 10° WNW 22:37:11 88° S 22:38:56 25° ESE visible
